| time (UTC) | temp F | wind direction | speed knots | gust knots | rain 1hr in | rain 24hr in | rain mn in | humidity % | barometer mb |
| 20260506211745 | 64 | 191 | 1.7 | 5.2 | 0.00 | 0.27 | 0.27 | 89 | 1007.7 |
| 20260506211239 | 64 | 205 | 1.7 | 5.2 | 0.00 | 0.27 | 0.27 | 90 | 1007.6 |
| 20260506210744 | 64 | 202 | 2.6 | 5.2 | 0.00 | 0.27 | 0.27 | 90 | 1007.7 |
| 20260506210242 | 64 | 229 | 1.7 | 4.3 | 0.00 | 0.27 | 0.27 | 90 | 1007.6 |
| 20260506205744 | 64 | 211 | 1.7 | 4.3 | 0.00 | 0.27 | 0.27 | 91 | 1007.6 |
| 20260506205239 | 63 | 185 | 1.7 | 5.2 | 0.00 | 0.27 | 0.27 | 91 | 1007.5 |
| 20260506205158 | 63 | 224 | 2.6 | 6.1 | 0.00 | 0.27 | 0.27 | 91 | 1007.6 |
| 20260506204239 | 63 | 205 | 2.6 | 6.1 | 0.00 | 0.27 | 0.27 | 91 | 1007.5 |
| 20260506204122 | 63 | 210 | 2.6 | 6.1 | 0.00 | 0.27 | 0.27 | 91 | 1007.6 |
| 20260506203239 | 63 | 244 | 3.5 | 7.0 | 0.00 | 0.27 | 0.27 | 91 | 1007.5 |
| 20260506202743 | 63 | 234 | 3.5 | 7.0 | 0.00 | 0.27 | 0.27 | 91 | 1007.5 |
| 20260506202240 | 63 | 192 | 3.5 | 8.7 | 0.00 | 0.27 | 0.27 | 92 | 1007.5 |
| 20260506201745 | 62 | 199 | 3.5 | 8.7 | 0.00 | 0.27 | 0.27 | 92 | 1007.4 |
| 20260506201234 | 62 | 223 | 3.5 | 7.0 | 0.00 | 0.27 | 0.27 | 92 | 1007.4 |
| 20260506200735 | 62 | 248 | 3.5 | 7.8 | 0.00 | 0.27 | 0.27 | 92 | 1007.5 |
| 20260506200239 | 62 | 263 | 3.5 | 7.8 | 0.00 | 0.27 | 0.27 | 92 | 1007.5 |
| 20260506195738 | 62 | 208 | 2.6 | 7.8 | 0.00 | 0.27 | 0.27 | 93 | 1007.5 |
| 20260506195237 | 62 | 187 | 3.5 | 7.8 | 0.00 | 0.27 | 0.27 | 93 | 1007.5 |
| 20260506194733 | 62 | 194 | 2.6 | 7.0 | 0.00 | 0.27 | 0.27 | 93 | 1007.7 |
| 20260506194237 | 62 | 181 | 2.6 | 7.0 | 0.00 | 0.27 | 0.27 | 93 | 1007.6 |
| 20260506193757 | 62 | 146 | 1.7 | 7.0 | 0.00 | 0.27 | 0.27 | 94 | 1007.7 |
| 20260506193255 | 61 | 187 | 2.6 | 7.0 | 0.00 | 0.27 | 0.27 | 94 | 1007.7 |
| 20260506192750 | 61 | 208 | 2.6 | 7.0 | 0.00 | 0.27 | 0.27 | 94 | 1007.8 |
| 20260506192248 | 61 | 214 | 2.6 | 7.0 | 0.00 | 0.27 | 0.27 | 94 | 1007.7 |
| 20260506191748 | 61 | 196 | 2.6 | 7.0 | 0.01 | 0.27 | 0.27 | 94 | 1007.8 |
| 20260506191638 | 61 | 211 | 2.6 | 7.0 | 0.01 | 0.27 | 0.27 | 94 | 1007.8 |
| 20260506190921 | 61 | 222 | 2.6 | 7.0 | 0.01 | 0.27 | 0.27 | 94 | 1007.9 |
| 20260506185743 | 61 | 225 | 2.6 | 6.1 | 0.02 | 0.27 | 0.27 | 94 | 1008.1 |
| 20260506185249 | 61 | 232 | 2.6 | 6.1 | 0.02 | 0.27 | 0.27 | 94 | 1008.2 |
| 20260506184741 | 61 | 243 | 2.6 | 6.1 | 0.03 | 0.27 | 0.27 | 94 | 1008.2 |
| 20260506184239 | 61 | 202 | 2.6 | 5.2 | 0.04 | 0.27 | 0.27 | 94 | 1008.3 |
| 20260506183737 | 61 | 188 | 2.6 | 5.2 | 0.04 | 0.27 | 0.27 | 94 | 1008.4 |
| 20260506183441 | 61 | 219 | 2.6 | 7.0 | 0.04 | 0.27 | 0.27 | 94 | 1008.4 |
| 20260506182222 | 61 | 143 | 2.6 | 7.0 | 0.06 | 0.27 | 0.27 | 94 | 1008.5 |
| 20260506181723 | 61 | 215 | 2.6 | 7.0 | 0.06 | 0.26 | 0.26 | 94 | 1008.3 |
| 20260506181215 | 61 | 225 | 2.6 | 7.0 | 0.06 | 0.26 | 0.26 | 94 | 1008.4 |
| 20260506181038 | 61 | 225 | 1.7 | 7.0 | 0.07 | 0.26 | 0.26 | 93 | 1008.4 |
| 20260506180216 | 61 | 209 | 1.7 | 5.2 | 0.07 | 0.25 | 0.25 | 93 | 1008.5 |
| 20260506180045 | 61 | 252 | 2.6 | 5.2 | 0.08 | 0.25 | 0.25 | 93 | 1008.5 |
| 20260506175212 | 61 | 179 | 2.6 | 5.2 | 0.08 | 0.25 | 0.24 | 93 | 1008.6 |
| 20260506174709 | 61 | 221 | 2.6 | 10.4 | 0.07 | 0.24 | 0.24 | 93 | 1008.5 |
| 20260506174207 | 61 | 192 | 3.5 | 10.4 | 0.07 | 0.23 | 0.23 | 93 | 1008.5 |
| 20260506173707 | 61 | 216 | 3.5 | 10.4 | 0.07 | 0.23 | 0.23 | 92 | 1008.5 |
| 20260506173206 | 61 | 254 | 4.3 | 10.4 | 0.07 | 0.23 | 0.22 | 92 | 1008.4 |
| 20260506172707 | 61 | 227 | 4.3 | 12.2 | 0.06 | 0.22 | 0.22 | 92 | 1008.4 |
| 20260506172202 | 61 | 174 | 4.3 | 12.2 | 0.05 | 0.21 | 0.21 | 92 | 1008.5 |
| 20260506171701 | 61 | 172 | 3.5 | 10.4 | 0.04 | 0.20 | 0.20 | 92 | 1008.6 |
| 20260506171202 | 61 | 155 | 4.3 | 9.6 | 0.04 | 0.20 | 0.20 | 92 | 1008.6 |
| 20260506170705 | 61 | 219 | 4.3 | 11.3 | 0.04 | 0.19 | 0.19 | 91 | 1008.7 |
| 20260506170202 | 61 | 187 | 3.5 | 11.3 | 0.03 | 0.18 | 0.18 | 91 | 1008.7 |
| 20260506170049 | 61 | 230 | 4.3 | 13.0 | 0.02 | 0.17 | 0.17 | 91 | 1008.8 |
| 20260506165202 | 61 | 198 | 4.3 | 13.0 | 0.03 | 0.17 | 0.17 | 91 | 1008.7 |
| 20260506164705 | 61 | 203 | 3.5 | 10.4 | 0.04 | 0.17 | 0.17 | 91 | 1008.8 |
| 20260506164202 | 61 | 168 | 3.5 | 10.4 | 0.04 | 0.16 | 0.16 | 91 | 1008.8 |
| 20260506163702 | 62 | 182 | 4.3 | 13.0 | 0.05 | 0.16 | 0.16 | 91 | 1008.7 |
| 20260506163551 | 61 | 216 | 6.1 | 13.0 | 0.06 | 0.16 | 0.16 | 90 | 1008.8 |
| 20260506162701 | 61 | 211 | 5.2 | 13.0 | 0.07 | 0.16 | 0.16 | 91 | 1008.7 |
| 20260506162202 | 62 | 194 | 4.3 | 13.0 | 0.08 | 0.16 | 0.16 | 91 | 1008.6 |
| 20260506162041 | 62 | 205 | 5.2 | 13.0 | 0.09 | 0.16 | 0.16 | 91 | 1008.5 |
| 20260506161201 | 62 | 164 | 4.3 | 13.0 | 0.09 | 0.16 | 0.15 | 91 | 1008.5 |
| 20260506160704 | 62 | 208 | 4.3 | 11.3 | 0.09 | 0.15 | 0.15 | 92 | 1008.6 |
| 20260506160202 | 62 | 217 | 4.3 | 12.2 | 0.09 | 0.15 | 0.15 | 91 | 1008.7 |
| 20260506155703 | 61 | 177 | 4.3 | 12.2 | 0.09 | 0.15 | 0.14 | 91 | 1008.9 |
| 20260506155202 | 62 | 168 | 4.3 | 10.4 | 0.08 | 0.14 | 0.14 | 91 | 1009.2 |
| 20260506154702 | 62 | 215 | 4.3 | 10.4 | 0.08 | 0.13 | 0.13 | 91 | 1009.4 |
| 20260506154202 | 62 | 157 | 4.3 | 10.4 | 0.08 | 0.12 | 0.12 | 90 | 1009.6 |
| 20260506153701 | 62 | 195 | 4.3 | 10.4 | 0.07 | 0.11 | 0.11 | 90 | 1009.7 |
| 20260506153354 | 62 | 155 | 5.2 | 11.3 | 0.07 | 0.10 | 0.10 | 90 | 1009.6 |
| 20260506152631 | 62 | 160 | 5.2 | 13.0 | 0.07 | 0.08 | 0.08 | 89 | 1009.6 |
| 20260506151705 | 62 | 238 | 5.2 | 13.0 | 0.07 | 0.07 | 0.07 | 89 | 1009.9 |
| 20260506151205 | 63 | 184 | 4.3 | 13.0 | 0.07 | 0.07 | 0.07 | 89 | 1009.7 |
| 20260506151124 | 63 | 125 | 2.6 | 11.3 | 0.06 | 0.06 | 0.06 | 89 | 1009.6 |
| 20260506150201 | 63 | 226 | 3.5 | 9.6 | 0.06 | 0.06 | 0.06 | 89 | 1009.4 |
| 20260506145705 | 63 | 147 | 3.5 | 9.6 | 0.06 | 0.06 | 0.06 | 89 | 1009.4 |
| 20260506145203 | 63 | 166 | 2.6 | 7.0 | 0.06 | 0.06 | 0.05 | 89 | 1009.5 |
| 20260506144702 | 63 | 196 | 2.6 | 7.0 | 0.05 | 0.05 | 0.05 | 88 | 1009.6 |
| 20260506144349 | 63 | 150 | 2.6 | 7.0 | 0.04 | 0.04 | 0.04 | 87 | 1009.3 |
| 20260506143632 | 64 | 213 | 2.6 | 5.2 | 0.03 | 0.03 | 0.03 | 86 | 1009.5 |
| 20260506142701 | 64 | 191 | 2.6 | 10.4 | 0.02 | 0.02 | 0.02 | 86 | 1009.7 |
| 20260506142201 | 64 | 148 | 3.5 | 10.4 | 0.01 | 0.01 | 0.01 | 85 | 1009.8 |
| 20260506141701 | 64 | 163 | 4.3 | 12.2 | 0.00 | 0.00 | 0.00 | 84 | 1009.6 |
| 20260506141202 | 64 | 150 | 4.3 | 12.2 | 0.00 | 0.00 | 0.00 | 83 | 1009.6 |
| 20260506140703 | 64 | 228 | 3.5 | 11.3 | 0.00 | 0.00 | 0.00 | 83 | 1009.6 |
| 20260506140156 | 64 | 239 | 3.5 | 10.4 | 0.00 | 0.00 | 0.00 | 83 | 1009.6 |
| 20260506135652 | 65 | 147 | 3.5 | 7.8 | 0.00 | 0.00 | 0.00 | 84 | 1009.3 |
| 20260506135647 | 64 | 152 | 3.5 | 7.8 | 0.00 | 0.00 | 0.00 | 83 | 1009.4 |
| 20260506134634 | 64 | 177 | 3.5 | 7.8 | 0.00 | 0.00 | 0.00 | 84 | 1009.5 |
| 20260506134136 | 64 | 191 | 3.5 | 8.7 | 0.00 | 0.00 | 0.00 | 83 | 1009.5 |
| 20260506133637 | 64 | 186 | 3.5 | 8.7 | 0.00 | 0.00 | 0.00 | 83 | 1009.7 |
| 20260506133132 | 65 | 183 | 3.5 | 8.7 | 0.00 | 0.00 | 0.00 | 82 | 1009.7 |
| 20260506132634 | 65 | 194 | 4.3 | 8.7 | 0.00 | 0.00 | 0.00 | 82 | 1009.7 |
| 20260506132136 | 65 | 212 | 4.3 | 9.6 | 0.00 | 0.00 | 0.00 | 81 | 1009.7 |
| 20260506131633 | 65 | 149 | 4.3 | 9.6 | 0.00 | 0.00 | 0.00 | 81 | 1009.7 |
| 20260506131132 | 65 | 202 | 3.5 | 7.8 | 0.00 | 0.00 | 0.00 | 81 | 1009.7 |
| 20260506130633 | 65 | 170 | 2.6 | 8.7 | 0.00 | 0.00 | 0.00 | 81 | 1009.7 |
| 20260506130603 | 65 | 152 | 3.5 | 10.4 | 0.00 | 0.00 | 0.00 | 81 | 1009.8 |
| 20260506125634 | 66 | 197 | 4.3 | 10.4 | 0.00 | 0.00 | 0.00 | 79 | 1009.8 |
| 20260506125133 | 66 | 178 | 4.3 | 10.4 | 0.00 | 0.00 | 0.00 | 78 | 1009.8 |
| 20260506124634 | 66 | 216 | 5.2 | 13.9 | 0.00 | 0.00 | 0.00 | 77 | 1009.7 |
| 20260506124136 | 66 | 219 | 5.2 | 13.9 | 0.00 | 0.00 | 0.00 | 76 | 1009.6 |
| 20260506124101 | 66 | 211 | 5.2 | 13.9 | 0.00 | 0.00 | 0.00 | 76 | 1009.5 |
| 20260506123135 | 66 | 217 | 4.3 | 13.9 | 0.00 | 0.00 | 0.00 | 76 | 1009.6 |
| 20260506122637 | 66 | 171 | 4.3 | 10.4 | 0.00 | 0.00 | 0.00 | 76 | 1009.6 |
| 20260506122132 | 66 | 196 | 5.2 | 10.4 | 0.00 | 0.00 | 0.00 | 76 | 1009.4 |
| 20260506121636 | 66 | 197 | 4.3 | 11.3 | 0.00 | 0.00 | 0.00 | 76 | 1009.2 |
| 20260506121132 | 66 | 159 | 5.2 | 12.2 | 0.00 | 0.00 | 0.00 | 76 | 1009.2 |
| 20260506120632 | 66 | 183 | 4.3 | 12.2 | 0.00 | 0.00 | 0.00 | 76 | 1009.5 |
| 20260506120130 | 66 | 168 | 3.5 | 11.3 | 0.00 | 0.00 | 0.00 | 76 | 1009.4 |
| 20260506115630 | 66 | 207 | 4.3 | 10.4 | 0.00 | 0.00 | 0.00 | 75 | 1009.4 |
| 20260506115518 | 66 | 248 | 4.3 | 8.7 | 0.00 | 0.00 | 0.00 | 75 | 1009.4 |
| 20260506114634 | 66 | 213 | 3.5 | 8.7 | 0.00 | 0.00 | 0.00 | 75 | 1009.3 |
| 20260506114134 | 66 | 172 | 3.5 | 8.7 | 0.00 | 0.00 | 0.00 | 76 | 1009.3 |
| 20260506113637 | 66 | 188 | 3.5 | 7.8 | 0.00 | 0.00 | 0.00 | 75 | 1009.3 |
| 20260506113134 | 66 | 181 | 4.3 | 8.7 | 0.00 | 0.00 | 0.00 | 75 | 1009.4 |
| 20260506112630 | 66 | 158 | 3.5 | 8.7 | 0.00 | 0.00 | 0.00 | 75 | 1009.4 |
| 20260506112130 | 66 | 159 | 3.5 | 12.2 | 0.00 | 0.00 | 0.00 | 75 | 1009.4 |
| 20260506111634 | 66 | 184 | 4.3 | 12.2 | 0.00 | 0.00 | 0.00 | 75 | 1009.4 |
| 20260506111553 | 66 | 219 | 5.2 | 12.2 | 0.00 | 0.00 | 0.00 | 75 | 1009.4 |
| 20260506111058 | 66 | 188 | 5.2 | 13.9 | 0.00 | 0.00 | 0.00 | 75 | 1009.3 |
| 20260506110312 | 66 | 168 | 4.3 | 13.9 | 0.00 | 0.00 | 0.00 | 75 | 1009.2 |
| 20260506105131 | 66 | 138 | 3.5 | 12.2 | 0.00 | 0.00 | 0.00 | 75 | 1008.9 |
| 20260506104629 | 66 | 171 | 3.5 | 9.6 | 0.00 | 0.00 | 0.00 | 75 | 1009.0 |
| 20260506104130 | 66 | 169 | 3.5 | 9.6 | 0.00 | 0.00 | 0.00 | 75 | 1008.9 |
| 20260506103630 | 66 | 212 | 4.3 | 9.6 | 0.00 | 0.00 | 0.00 | 75 | 1008.8 |
| 20260506103605 | 66 | 201 | 5.2 | 9.6 | 0.00 | 0.00 | 0.00 | 75 | 1008.7 |
| 20260506102629 | 66 | 151 | 4.3 | 9.6 | 0.00 | 0.00 | 0.00 | 75 | 1008.7 |
| 20260506102130 | 66 | 123 | 4.3 | 8.7 | 0.00 | 0.00 | 0.00 | 75 | 1008.7 |
| 20260506102032 | 66 | 168 | 4.3 | 9.6 | 0.00 | 0.00 | 0.00 | 75 | 1008.8 |
| 20260506101129 | 66 | 136 | 3.5 | 9.6 | 0.00 | 0.00 | 0.00 | 75 | 1008.8 |
| 20260506100830 | 66 | 198 | 3.5 | 8.7 | 0.00 | 0.00 | 0.00 | 75 | 1008.9 |
| 20260506095625 | 66 | 177 | 2.6 | 8.7 | 0.00 | 0.00 | 0.00 | 75 | 1008.9 |
| 20260506095117 | 66 | 161 | 3.5 | 9.6 | 0.00 | 0.00 | 0.00 | 75 | 1009.0 |
| 20260506094614 | 66 | 186 | 4.3 | 10.4 | 0.00 | 0.00 | 0.00 | 74 | 1008.9 |
| 20260506094117 | 66 | 178 | 3.5 | 10.4 | 0.00 | 0.00 | 0.00 | 74 | 1008.9 |
| 20260506093612 | 67 | 200 | 4.3 | 11.3 | 0.00 | 0.00 | 0.00 | 74 | 1008.8 |
| 20260506093532 | 67 | 190 | 4.3 | 11.3 | 0.00 | 0.00 | 0.00 | 73 | 1008.8 |
| 20260506092614 | 67 | 208 | 4.3 | 11.3 | 0.00 | 0.00 | 0.00 | 73 | 1008.9 |
| 20260506092500 | 67 | 204 | 4.3 | 11.3 | 0.00 | 0.00 | 0.00 | 73 | 1008.9 |
| 20260506091610 | 67 | 209 | 3.5 | 10.4 | 0.00 | 0.00 | 0.00 | 73 | 1008.9 |
| 20260506091110 | 67 | 198 | 3.5 | 10.4 | 0.00 | 0.00 | 0.00 | 72 | 1008.8 |
| 20260506091022 | 67 | 185 | 4.3 | 11.3 | 0.00 | 0.00 | 0.00 | 72 | 1008.9 |
| 20260506090109 | 67 | 207 | 4.3 | 11.3 | 0.00 | 0.00 | 0.00 | 72 | 1008.9 |
| 20260506085608 | 67 | 184 | 3.5 | 9.6 | 0.00 | 0.00 | 0.00 | 71 | 1009.0 |
| 20260506085107 | 67 | 227 | 4.3 | 10.4 | 0.00 | 0.00 | 0.00 | 71 | 1009.0 |
| 20260506084604 | 67 | 170 | 4.3 | 10.4 | 0.00 | 0.00 | 0.00 | 71 | 1009.1 |
| 20260506084105 | 67 | 197 | 4.3 | 11.3 | 0.00 | 0.03 | 0.00 | 71 | 1009.1 |
| 20260506083604 | 67 | 147 | 5.2 | 11.3 | 0.00 | 0.05 | 0.00 | 70 | 1009.1 |
| 20260506083258 | 67 | 175 | 4.3 | 11.3 | 0.00 | 0.06 | 0.00 | 70 | 1009.1 |
| 20260506082102 | 67 | 171 | 5.2 | 12.2 | 0.00 | 0.06 | 0.00 | 69 | 1009.1 |
| 20260506082028 | 67 | 199 | 5.2 | 10.4 | 0.00 | 0.06 | 0.00 | 69 | 1009.1 |
| 20260506081059 | 67 | 161 | 4.3 | 9.6 | 0.00 | 0.06 | 0.00 | 69 | 1009.2 |
| 20260506080555 | 67 | 275 | 4.3 | 8.7 | 0.00 | 0.06 | 0.00 | 69 | 1009.1 |
| 20260506073030 | 68 | 182 | 4.3 | 11.3 | 0.00 | 0.06 | 0.00 | 66 | 1009.2 |
| 20260506072529 | 68 | 265 | 3.5 | 8.7 | 0.00 | 0.06 | 0.00 | 65 | 1009.3 |
| 20260506072446 | 68 | 202 | 4.3 | 8.7 | 0.00 | 0.06 | 0.00 | 65 | 1009.2 |
| 20260506071530 | 68 | 154 | 4.3 | 10.4 | 0.00 | 0.06 | 0.00 | 65 | 1009.3 |
| 20260506071030 | 69 | 230 | 4.3 | 10.4 | 0.00 | 0.06 | 0.00 | 64 | 1009.3 |
| 20260506070532 | 69 | 229 | 4.3 | 10.4 | 0.00 | 0.06 | 0.00 | 64 | 1009.3 |
| 20260506070227 | 69 | 202 | 4.3 | 10.4 | 0.00 | 0.06 | 0.00 | 64 | 1009.3 |
| 20260506062029 | 69 | 196 | 3.5 | 9.6 | 0.00 | 0.06 | 0.00 | 62 | 1009.5 |
| 20260506061533 | 69 | 284 | 4.3 | 11.3 | 0.00 | 0.06 | 0.00 | 62 | 1009.6 |
| 20260506061033 | 69 | 202 | 4.3 | 11.3 | 0.00 | 0.06 | 0.00 | 61 | 1009.6 |
| 20260506060529 | 69 | 163 | 4.3 | 10.4 | 0.00 | 0.06 | 0.00 | 61 | 1009.7 |
| 20260506060456 | 70 | 175 | 5.2 | 14.8 | 0.00 | 0.06 | 0.00 | 61 | 1009.8 |
| 20260506051030 | 70 | 214 | 6.1 | 13.9 | 0.00 | 0.06 | 0.00 | 59 | 1009.9 |
| 20260506050552 | 70 | 212 | 5.2 | 14.8 | 0.00 | 0.06 | 0.00 | 59 | 1010.0 |
| 20260506045040 | 70 | 187 | 4.3 | 14.8 | 0.00 | 0.06 | 0.00 | 59 | 1010.0 |
| 20260506044547 | 70 | 163 | 3.5 | 12.2 | 0.00 | 0.06 | 0.00 | 59 | 1010.0 |
| 20260506044035 | 70 | 135 | 4.3 | 11.3 | 0.00 | 0.06 | 0.00 | 59 | 1010.1 |
| 20260506043535 | 70 | 146 | 5.2 | 12.2 | 0.00 | 0.06 | 0.00 | 59 | 1010.0 |
| 20260506043451 | 70 | 163 | 5.2 | 12.2 | 0.00 | 0.06 | 0.00 | 58 | 1010.0 |
| 20260506042530 | 70 | 195 | 4.3 | 16.5 | 0.00 | 0.06 | 0.00 | 58 | 1010.0 |
| 20260506042032 | 70 | 198 | 4.3 | 16.5 | 0.00 | 0.06 | 0.00 | 58 | 1010.2 |
| 20260506041529 | 70 | 146 | 5.2 | 16.5 | 0.00 | 0.06 | 0.00 | 58 | 1010.1 |
| 20260506041045 | 70 | 142 | 5.2 | 16.5 | 0.00 | 0.06 | 0.00 | 57 | 1010.0 |
| 20260506040809 | 70 | 154 | 3.5 | 10.4 | 0.00 | 0.06 | 0.00 | 57 | 1010.0 |
| 20260506040029 | 70 | 210 | 3.5 | 12.2 | 0.00 | 0.06 | 0.00 | 57 | 1010.0 |
| 20260506035733 | 71 | 200 | 4.3 | 12.2 | 0.00 | 0.06 | 0.06 | 56 | 1010.1 |
| 20260506034529 | 71 | 192 | 5.2 | 13.0 | 0.00 | 0.06 | 0.06 | 56 | 1010.2 |
| 20260506034411 | 71 | 162 | 3.5 | 10.4 | 0.00 | 0.06 | 0.06 | 56 | 1010.1 |
| 20260506033913 | 71 | 215 | 3.5 | 12.2 | 0.00 | 0.06 | 0.06 | 56 | 1010.1 |
| 20260506033030 | 71 | 206 | 3.5 | 12.2 | 0.00 | 0.06 | 0.06 | 55 | 1010.0 |
| 20260506032536 | 71 | 143 | 1.7 | 9.6 | 0.00 | 0.06 | 0.06 | 55 | 1010.1 |
| 20260506032029 | 71 | 238 | 1.7 | 8.7 | 0.00 | 0.06 | 0.06 | 54 | 1010.1 |
| 20260506031529 | 71 | 166 | 2.6 | 8.7 | 0.00 | 0.06 | 0.06 | 54 | 1010.0 |
| 20260506031029 | 72 | 158 | 2.6 | 10.4 | 0.00 | 0.06 | 0.06 | 54 | 1010.1 |
| 20260506030535 | 72 | 170 | 2.6 | 10.4 | 0.00 | 0.06 | 0.06 | 53 | 1010.0 |
| 20260506030457 | 72 | 200 | 3.5 | 11.3 | 0.00 | 0.06 | 0.06 | 53 | 1010.1 |
| 20260506030213 | 72 | 200 | 3.5 | 11.3 | 0.00 | 0.06 | 0.06 | 53 | 1010.1 |
| 20260506025031 | 73 | 148 | 4.3 | 10.4 | 0.00 | 0.06 | 0.06 | 52 | 1009.9 |
| 20260506024533 | 73 | 199 | 5.2 | 10.4 | 0.00 | 0.06 | 0.06 | 52 | 1009.8 |
| 20260506024031 | 73 | 124 | 4.3 | 13.0 | 0.00 | 0.06 | 0.06 | 51 | 1009.9 |
| 20260506023530 | 73 | 178 | 4.3 | 13.0 | 0.00 | 0.06 | 0.06 | 51 | 1010.0 |
| 20260506023035 | 73 | 134 | 4.3 | 13.0 | 0.00 | 0.06 | 0.06 | 51 | 1010.1 |
| 20260506022530 | 73 | 139 | 4.3 | 13.0 | 0.00 | 0.06 | 0.06 | 51 | 1010.0 |
| 20260506022034 | 73 | 127 | 3.5 | 9.6 | 0.00 | 0.06 | 0.06 | 50 | 1010.1 |
| 20260506021530 | 74 | 153 | 4.3 | 9.6 | 0.00 | 0.06 | 0.06 | 50 | 1010.1 |
| 20260506021216 | 74 | 190 | 4.3 | 9.6 | 0.00 | 0.06 | 0.06 | 49 | 1010.0 |
| 20260506020457 | 74 | 180 | 4.3 | 10.4 | 0.00 | 0.06 | 0.06 | 49 | 1010.1 |
| 20260506015032 | 74 | 188 | 4.3 | 10.4 | 0.00 | 0.06 | 0.06 | 48 | 1009.9 |
| 20260506014531 | 74 | 176 | 3.5 | 15.6 | 0.00 | 0.06 | 0.06 | 48 | 1009.9 |
| 20260506014453 | 75 | 142 | 3.5 | 15.6 | 0.00 | 0.06 | 0.06 | 47 | 1009.8 |
| 20260506013531 | 75 | 180 | 4.3 | 17.4 | 0.00 | 0.06 | 0.06 | 47 | 1009.9 |
| 20260506013030 | 75 | 190 | 5.2 | 17.4 | 0.00 | 0.06 | 0.06 | 46 | 1009.9 |
| 20260506012530 | 75 | 223 | 4.3 | 11.3 | 0.00 | 0.06 | 0.06 | 46 | 1009.8 |
| 20260506012029 | 75 | 182 | 4.3 | 11.3 | 0.00 | 0.06 | 0.06 | 46 | 1009.7 |
| 20260506011530 | 75 | 189 | 4.3 | 10.4 | 0.00 | 0.06 | 0.06 | 46 | 1009.7 |
| 20260506011031 | 75 | 258 | 3.5 | 8.7 | 0.00 | 0.06 | 0.06 | 46 | 1009.5 |
| 20260506010529 | 76 | 202 | 3.5 | 8.7 | 0.00 | 0.06 | 0.06 | 46 | 1009.4 |
| 20260506010029 | 76 | 148 | 3.5 | 13.0 | 0.00 | 0.06 | 0.06 | 45 | 1009.5 |
| 20260506005532 | 76 | 164 | 4.3 | 13.0 | 0.00 | 0.06 | 0.06 | 45 | 1009.3 |
| 20260506005030 | 76 | 156 | 5.2 | 13.0 | 0.00 | 0.06 | 0.06 | 44 | 1009.3 |
| 20260506004532 | 76 | 153 | 5.2 | 13.0 | 0.00 | 0.06 | 0.06 | 44 | 1009.4 |
| 20260506004030 | 76 | 213 | 4.3 | 11.3 | 0.00 | 0.06 | 0.06 | 44 | 1009.3 |
| 20260506003535 | 76 | 179 | 5.2 | 9.6 | 0.00 | 0.06 | 0.06 | 44 | 1009.2 |
| 20260506003030 | 77 | 194 | 5.2 | 14.8 | 0.00 | 0.06 | 0.06 | 43 | 1009.1 |
| 20260506002530 | 77 | 169 | 4.3 | 14.8 | 0.00 | 0.06 | 0.06 | 44 | 1009.1 |
| 20260506002029 | 77 | 146 | 5.2 | 14.8 | 0.00 | 0.06 | 0.06 | 44 | 1009.0 |
| 20260506001953 | 77 | 223 | 5.2 | 14.8 | 0.00 | 0.06 | 0.06 | 44 | 1008.8 |
| 20260506001030 | 77 | 194 | 4.3 | 13.9 | 0.00 | 0.06 | 0.06 | 44 | 1008.9 |
| 20260506000530 | 77 | 112 | 4.3 | 13.9 | 0.00 | 0.06 | 0.06 | 44 | 1008.8 |
| 20260506000030 | 77 | 186 | 5.2 | 14.8 | 0.00 | 0.06 | 0.06 | 44 | 1008.8 |
| 20260505235529 | 77 | 168 | 5.2 | 14.8 | 0.00 | 0.06 | 0.06 | 44 | 1009.0 |
| 20260505235034 | 77 | 205 | 5.2 | 14.8 | 0.00 | 0.06 | 0.06 | 44 | 1008.7 |
| 20260505234725 | 78 | 188 | 5.2 | 14.8 | 0.00 | 0.06 | 0.06 | 43 | 1008.7 |
| 20260505233528 | 78 | 196 | 6.1 | 14.8 | 0.00 | 0.06 | 0.06 | 42 | 1008.6 |
| 20260505233022 | 78 | 184 | 7.0 | 15.6 | 0.00 | 0.06 | 0.06 | 41 | 1008.6 |
| 20260505232513 | 78 | 234 | 7.0 | 15.6 | 0.00 | 0.06 | 0.06 | 41 | 1008.5 |
| 20260505232005 | 78 | 175 | 6.1 | 15.6 | 0.00 | 0.06 | 0.06 | 41 | 1008.4 |
| 20260505231505 | 78 | 221 | 7.0 | 15.6 | 0.00 | 0.06 | 0.06 | 41 | 1008.5 |
| 20260505231008 | 78 | 259 | 7.0 | 16.5 | 0.00 | 0.06 | 0.06 | 42 | 1008.4 |
| 20260505230504 | 79 | 188 | 6.1 | 16.5 | 0.00 | 0.06 | 0.06 | 42 | 1008.5 |
| 20260505230004 | 79 | 169 | 7.0 | 16.5 | 0.00 | 0.06 | 0.06 | 41 | 1008.4 |
| 20260505225504 | 79 | 182 | 7.0 | 16.5 | 0.00 | 0.06 | 0.06 | 41 | 1008.5 |
| 20260505225003 | 79 | 155 | 6.1 | 15.6 | 0.00 | 0.06 | 0.06 | 40 | 1008.3 |
| 20260505224503 | 80 | 208 | 6.1 | 15.6 | 0.00 | 0.06 | 0.06 | 40 | 1008.4 |
| 20260505224432 | 80 | 205 | 6.1 | 14.8 | 0.00 | 0.06 | 0.06 | 40 | 1008.3 |
| 20260505223503 | 80 | 190 | 6.1 | 16.5 | 0.00 | 0.06 | 0.06 | 41 | 1008.4 |
| 20260505223007 | 80 | 123 | 6.1 | 16.5 | 0.00 | 0.06 | 0.06 | 40 | 1008.2 |
| 20260505222508 | 80 | 225 | 7.0 | 17.4 | 0.00 | 0.06 | 0.06 | 41 | 1008.3 |
| 20260505222007 | 80 | 176 | 7.8 | 17.4 | 0.00 | 0.06 | 0.06 | 40 | 1008.2 |
| 20260505221939 | 80 | 225 | 7.8 | 16.5 | 0.00 | 0.06 | 0.06 | 41 | 1007.9 |
| 20260505221006 | 80 | 145 | 7.8 | 16.5 | 0.00 | 0.06 | 0.06 | 41 | 1008.0 |
| 20260505220501 | 80 | 194 | 7.0 | 16.5 | 0.00 | 0.06 | 0.06 | 41 | 1008.1 |
| 20260505220008 | 80 | 173 | 6.1 | 13.9 | 0.00 | 0.06 | 0.06 | 41 | 1008.1 |
| 20260505215502 | 81 | 163 | 5.2 | 15.6 | 0.00 | 0.06 | 0.06 | 41 | 1008.1 |
| 20260505215001 | 81 | 169 | 6.1 | 15.6 | 0.00 | 0.06 | 0.06 | 41 | 1008.3 |
| 20260505214730 | 80 | 152 | 7.8 | 15.6 | 0.00 | 0.06 | 0.06 | 42 | 1008.3 |
| 20260505214004 | 80 | 178 | 7.8 | 18.2 | 0.00 | 0.06 | 0.06 | 41 | 1008.2 |
| 20260505213513 | 81 | 150 | 7.0 | 18.2 | 0.00 | 0.06 | 0.06 | 40 | 1008.3 |
| 20260505213434 | 81 | 154 | 7.0 | 16.5 | 0.00 | 0.06 | 0.06 | 41 | 1008.3 |
| 20260505212501 | 81 | 156 | 7.0 | 18.2 | 0.00 | 0.06 | 0.06 | 41 | 1008.3 |
| 20260505212433 | 81 | 121 | 7.0 | 18.2 | 0.00 | 0.06 | 0.06 | 41 | 1008.3 |